P/2020 V3 ( PanSTARRS )

Japanese version
Home page
Updated on June 1, 2021

---------------------------------------------------------------------

* Profile

Discovery Date November 10, 2020
Magnitude 20.6 mag
Discoverer Pan-STARRS 1 telescope (Haleakala)

* Pictures

* Orbital Elements

Epoch 2021 Jan. 26.0 TT = JDT 2459240.5
T 2021 Feb.  9.55761 TT                                 Rudenko
q   6.2303024            (2000.0)            P               Q
n   0.04076685     Peri.  249.37971     +0.06414192     -0.99036127
a   8.3611237      Node   198.28590     +0.99738538     +0.06772292
e   0.2548487      Incl.   23.03295     +0.03328979     -0.12082286
P  24.2
From 104 observations 2020 Oct. 17-2021 Feb. 13, mean residual 0".5.

* Magnitudes Graph

        m1 = 8.5 + 5 log d + 10.0 log r

---------------------------------------------------------------------

The orbital elements are published on M.P.E.C. 2021-L04.
The magnitudes graphs are made with Comet for Windows.

---------------------------------------------------------------------

Copyright(C) Seiichi Yoshida (comet@aerith.net). All rights reserved.